BEIDOU-2 G8

Last updated on Dec. 12, 2019, 4:25 a.m. UTC

1 44231U 19027A   19344.91688315 -.00000116  00000-0  00000-0 0  9994
2 44231   1.4151 294.6239 0000655 311.8132 243.0419  1.00273072  2229
UTC
Height (km)
Latitude
Longitude
Inclination
Orbital Period
UTC large
Height (km)
Speed (km/s)
/
Latitude / Longitude
Inclination (degrees)
Orbital Period (minutes)
Azimuth
Elevation
Range (km)
Doppler Factor
iOS Compass Heading
iOS Angle

Next 30 passes for location: Hong Kong

Rise time Rise Azimuth (degrees) Set time Set Azimuth (degrees) Duration Max altitude (degrees)

No matching passes for this satellites